Weather Service Report


841 
ASUS43 KMPX 250101
RWRMN 
WEATHER ROUNDUP FOR MINNESOTA
NATIONAL WEATHER SERVICE TWIN CITIES/CHANHASSEN MN
800 PM CDT SAT SEP 24 2016


NOTE: "FAIR" INDICATES FEW OR NO CLOUDS BELOW 12,000 FEET WITH NO
SIGNIFICANT WEATHER AND/OR OBSTRUCTIONS TO VISIBILITY. N/A MEANS
CURRENT SKY AND/OR WEATHER CONDITIONS ARE NOT AVAILABLE.

MNZ060>063-068>070-250200-
   Twin Cities Metro   
  
CITY           SKY/WX    TMP DP  RH WIND       PRES   REMARKS
TWIN CITIES    CLOUDY    68  62  81 SE16G22   30.01F                  
ST PAUL        CLOUDY    67  63  87 SE15      30.02S                  
CRYSTAL        CLOUDY    68  61  78 SE15      29.99S                  
BLAINE         CLOUDY    70  66  88 SE10G21   30.01R                  
LAKEVILLE      CLOUDY    66  66 100 E9        30.01S                  
EDEN PRAIRIE   CLOUDY    70  63  78 E14       29.98S                  
LAKEVILLE      CLOUDY    66  66 100 E9        30.01S                  
SOUTH ST PAUL  CLOUDY    67  64  88 SE7       30.01F                  
LAKE ELMO      CLOUDY    68  63  83 SE6       30.04S                  
$$
MNZ001>005-007-008-013>017-022>024-027-028-250200-
   Northwest Minnesota   
  
CITY           SKY/WX    TMP DP  RH WIND       PRES   REMARKS
BEMIDJI        CLOUDY    64  61  91 SE12      29.93S                  
HALLOCK        CLOUDY    70  64  83 SE15G22   29.79S                  
ROSEAU         CLOUDY    64  61  88 SE13      29.87S                  
WARROAD        CLOUDY    66  63  88 SE12G17   29.90S                  
THIEF RVR FALL CLOUDY    67  62  84 SE17      29.86S                  
FOSSTON        LGT RAIN  64  61  88 SE12G18   29.87F                  
DETROIT LAKES  LGT RAIN  64  63  94 SE10      29.89F                  
MOORHEAD       CLOUDY    68  66  94 SE13G18   29.82S                  
PARK RAPIDS    LGT RAIN  67  62  84 SE17      29.92S                  
MAHNOMEN       LGT RAIN  65  63  94 SE15G22   29.86R                  
$$
MNZ006-009>011-018-025>026-250200-
   North Central Minnesota   
  
CITY           SKY/WX    TMP DP  RH WIND       PRES   REMARKS
BAUDETTE       CLOUDY    63  60  90 S14G20    29.94R                  
FLAG ISLAND    CLOUDY    64  61  88 SE13      29.90S                  
INTL FALLS     CLOUDY    63  59  87 SE13G21   29.99S                  
WASKISH        CLOUDY    64  61  88 SE10G20   29.93F                  
BIG FORK       CLOUDY    63  61  94 SE8       30.00S                  
GRAND RAPIDS   CLOUDY    62  60  93 SE12G18   30.01F                  
COOK           CLOUDY    61  57  88 SE8       30.04F                  
WALKER         CLOUDY    64  61  90 SE8       29.94F                  
$$
MNZ012-019>021-037-250200-
   Northeast Minnesota   
  
CITY           SKY/WX    TMP DP  RH WIND       PRES   REMARKS
DULUTH         CLOUDY    62  59  90 E13       30.07S                  
ELY            CLOUDY    59  54  82 SE15      30.07F                  
HIBBING        CLOUDY    60  58  92 SE12      30.04S                  
EVELETH        CLOUDY    60  56  88 E8        30.07R                  
DULUTH HARBOR  CLOUDY    61  57  88 NE18      30.08R                  
TWO HARBORS    CLOUDY    63  57  82 E8        30.08R                  
SILVER BAY     CLOUDY    61  55  82 NE5       30.10S                  
GRAND MARAIS     N/A     62  53  72 NE7       30.14R                  
G MARAIS ARPRT CLOUDY    55  46  71 E9        30.17F                  
$$
MNZ029>031-032-039>041-046>048-054>057-064-250200-
   West Central Minnesota   
  
CITY           SKY/WX    TMP DP  RH WIND       PRES   REMARKS
FERGUS FALLS   CLOUDY    68  68 100 SE12      29.86F                  
MORRIS         CLOUDY    66  66 100 SE12      29.86S                  
ALEXANDRIA     CLOUDY    67  66  97 SE13      29.92F                  
ELBOW LAKE     MOCLDY    68  67  98 E13G18    29.86F                  
GLENWOOD       CLOUDY    66  64  94 SE10      29.93S                  
APPLETON       CLOUDY    68  64  88 SE13      29.87R                  
BENSON         CLOUDY    66  63  88 S16       29.89F                  
MADISON          N/A     70  68  94 SE10G17   29.89R                  
WILLMAR        FAIR      66  66 100 SE10      29.94F                  
$$
MNZ033>034-036-042>043-049>051-058-059-250200-
   Central Minnesota     
  
CITY           SKY/WX    TMP DP  RH WIND       PRES   REMARKS
ST CLOUD       CLOUDY    68  65  90 SE12G18   29.97F                  
SAUK CENTRE    RAIN      65  64  97 SE10      29.95F                  
PAYNESVILLE    LGT RAIN  66  66 100 SE9       29.97S                  
AITKIN         CLOUDY    68  61  77 SE10      29.99R                  
PINE RIVER     CLOUDY    64  63  94 SE15      29.99S                  
BRAINERD       CLOUDY    65  62  90 SE10      29.97S                  
STAPLES        RAIN      64  63  94 SE7       29.95R                  
LONG PRAIRIE   RAIN      64  63  94 E13       29.94F                  
LITTLE FALLS   LGT RAIN  64  61  88 SE12      29.98R                  
LITCHFIELD     LGT RAIN  68  66  94 E6        29.97F                  
BUFFALO        DRIZZLE   69  64  83 CALM      30.04R                  
MAPLE LAKE     DRIZZLE   69  67  90 SE3       30.01F                  
HUTCHINSON     LGT RAIN  68  67  99 NE7       29.98F                  
$$
MNZ037-044-045-052-053-250200-
   East Central Minnesota   
  
CITY           SKY/WX    TMP DP  RH WIND       PRES   REMARKS
PRINCETON      CLOUDY    68  64  88 SW6       30.04R                  
MORA           CLOUDY    64  61  88 SE6       30.03S                  
CAMBRIDGE      CLOUDY    70  61  73 SE9       29.99F                  
MOOSE LAKE     CLOUDY    64  61  88 SE5       30.02F                  
HINCKLEY       CLOUDY    64  63  94 SE9       30.03R                  
CLOQUET        CLOUDY    61  57  88 E9        30.05S                  
MCGREGOR       CLOUDY    64  61  88 SE8       30.02S                  
$$
MNZ071>073-080-081-089-090-097-098-250200-
   Southwest Minnesota   
  
CITY           SKY/WX    TMP DP  RH WIND       PRES   REMARKS
MONTEVIDEO     CLOUDY    66  66 100 S8        29.92S                  
GRANITE FALLS  LGT RAIN  68  66  94 E7        29.92S                  
CANBY          CLOUDY    67  65  93 E9        29.90R                  
MARSHALL       CLOUDY    67  65  93 SE12      29.91R                  
REDWOOD FALLS  LGT RAIN  67  65  93 E7        29.93S                  
OLIVIA         CLOUDY    66  64  94 E3        29.93F                  
PIPESTONE      CLOUDY    70  66  88 S6        29.92R                  
WINDOM         LGT RAIN  70  66  88 SE6       29.94S                  
WORTHINGTON    LGT RAIN  70  68  93 SE5       29.95R                  
JACKSON        DRIZZLE   70  66  88 SE6       29.95S                  
TRACY          CLOUDY    67  67  99 SE5       29.92F                  
$$
MNZ065>067-074>077-082>085-091>093-250200-
   South Central Minnesota  
  
CITY           SKY/WX    TMP DP  RH WIND       PRES   REMARKS
MANKATO        CLOUDY    73  67  81 SE13      29.96S                  
NEW ULM        LGT RAIN  70  68  94 E8        29.95R                  
ST JAMES       LGT RAIN  70  66  88 CALM      29.93F                  
FAIRMONT       LGT RAIN  72  69  90 E7        29.93F                  
GLENCOE        RAIN      70  68  95 NE3       29.98F                  
FARIBAULT      CLOUDY    70  64  83 E9        30.00F                  
OWATONNA       MOCLDY    70  63  78 E14       29.99F                  
WASECA         CLOUDY    70  64  83 E15G21    29.98F                  
ALBERT LEA     CLOUDY    70  64  83 SE14      29.99F                  
$$
MNZ078>079-086>088-094>096-250200-
   Southeast Minnesota   
  
CITY           SKY/WX    TMP DP  RH WIND       PRES   REMARKS
ROCHESTER      CLOUDY    67  64  90 SE15      30.05S                  
RED WING       CLOUDY    68  63  83 SE16      30.03F                  
DODGE CENTER   CLOUDY    66  63  88 SE10      30.03F                  
WINONA         CLOUDY    70  64  83 SE7       30.08R                  
AUSTIN         MOCLDY    66  63  88 SE10      30.01F                  
PRESTON        CLOUDY    66  62  87 SE12      30.07S                  
$$
ABBREVIATIONS USED IN REMARKS
   TC - TEMPERATURES IN CELSIUS
  WCI - WIND CHILL INDEX
   HX - HEAT INDEX
  VSB - VISIBILITY 
$$
  

Return to Home page


Western Regional Climate Center, wrcc@dri.edu